Time,TemperatureF,DewpointF,PressureIn,WindDirection,WindDirectionDegrees,WindSpeedMPH,WindSpeedGustMPH,Humidity,HourlyPrecipIn,Conditions,Clouds,dailyrainin,SoftwareType,DateUTC
2013-06-07 00:03:00,59.0,-99.9,-100.00,North,-999,-999.0,-999.0,-999,0.00,,,0.00,,2013-06-07 04:03:00,
2013-06-07 00:13:00,59.0,-99.9,-100.00,North,-999,-999.0,-999.0,-999,0.00,,,0.00,,2013-06-07 04:13:00,
2013-06-07 00:23:00,59.0,-99.9,-100.00,North,-999,-999.0,-999.0,-999,0.00,,,0.00,,2013-06-07 04:23:00,
2013-06-07 00:30:00,56.0,-99.9,-100.00,North,-999,-999.0,-999.0,-999,0.01,,,0.01,,2013-06-07 04:30:00,
2013-06-07 00:33:00,59.0,-99.9,-100.00,North,-999,-999.0,-999.0,-999,0.00,,,0.00,,2013-06-07 04:33:00,
2013-06-07 00:42:00,59.0,-99.9,-100.00,North,-999,-999.0,-999.0,-999,0.00,,,0.00,,2013-06-07 04:42:00,
2013-06-07 00:54:00,56.0,-99.9,-100.00,North,-999,-999.0,-999.0,-999,0.01,,,0.01,,2013-06-07 04:54:00,
2013-06-07 01:03:00,56.0,-99.9,-100.00,North,-999,-999.0,-999.0,-999,0.01,,,0.01,,2013-06-07 05:03:00,
2013-06-07 01:12:00,56.0,-99.9,-100.00,North,-999,-999.0,-999.0,-999,0.01,,,0.01,,2013-06-07 05:12:00,
2013-06-07 01:23:00,56.0,-99.9,-100.00,North,-999,-999.0,-999.0,-999,0.01,,,0.01,,2013-06-07 05:23:00,
2013-06-07 01:30:00,56.0,-99.9,-100.00,North,-999,-999.0,-999.0,-999,0.02,,,0.03,,2013-06-07 05:30:00,
2013-06-07 01:52:00,56.0,-99.9,-100.00,North,-999,-999.0,-999.0,-999,0.02,,,0.03,,2013-06-07 05:52:00,
2013-06-07 02:02:00,56.0,-99.9,-100.00,North,-999,-999.0,-999.0,-999,0.02,,,0.03,,2013-06-07 06:02:00,
2013-06-07 02:13:00,56.0,-99.9,-100.00,North,-999,-999.0,-999.0,-999,0.02,,,0.03,,2013-06-07 06:13:00,
2013-06-07 02:23:00,56.0,-99.9,-100.00,North,-999,-999.0,-999.0,-999,0.02,,,0.03,,2013-06-07 06:23:00,
2013-06-07 02:30:00,55.0,-99.9,-100.00,North,-999,-999.0,-999.0,-999,0.00,,,0.03,,2013-06-07 06:30:00,
2013-06-07 02:52:00,55.0,-99.9,-100.00,North,-999,-999.0,-999.0,-999,0.00,,,0.03,,2013-06-07 06:52:00,
2013-06-07 03:02:00,55.0,-99.9,-100.00,North,-999,-999.0,-999.0,-999,0.00,,,0.03,,2013-06-07 07:02:00,
2013-06-07 03:12:00,55.0,-99.9,-100.00,North,-999,-999.0,-999.0,-999,0.00,,,0.03,,2013-06-07 07:12:00,
2013-06-07 03:22:00,55.0,-99.9,-100.00,North,-999,-999.0,-999.0,-999,0.00,,,0.03,,2013-06-07 07:22:00,
2013-06-07 03:30:00,55.0,-99.9,-100.00,North,-999,-999.0,-999.0,-999,0.01,,,0.04,,2013-06-07 07:30:00,
2013-06-07 04:02:00,55.0,-99.9,-100.00,North,-999,-999.0,-999.0,-999,0.01,,,0.04,,2013-06-07 08:02:00,
2013-06-07 04:12:00,55.0,-99.9,-100.00,North,-999,-999.0,-999.0,-999,0.01,,,0.04,,2013-06-07 08:12:00,
2013-06-07 04:22:00,55.0,-99.9,-100.00,North,-999,-999.0,-999.0,-999,0.01,,,0.04,,2013-06-07 08:22:00,
2013-06-07 04:30:00,55.0,-99.9,-100.00,North,-999,-999.0,-999.0,-999,0.00,,,0.04,,2013-06-07 08:30:00,
2013-06-07 05:02:00,55.0,-99.9,-100.00,North,-999,-999.0,-999.0,-999,0.00,,,0.04,,2013-06-07 09:02:00,
2013-06-07 05:12:00,55.0,-99.9,-100.00,North,-999,-999.0,-999.0,-999,0.00,,,0.04,,2013-06-07 09:12:00,
2013-06-07 05:22:00,55.0,-99.9,-100.00,North,-999,-999.0,-999.0,-999,0.00,,,0.04,,2013-06-07 09:22:00,
2013-06-07 05:53:00,54.0,-99.9,-100.00,North,-999,-999.0,-999.0,-999,0.00,,,0.04,,2013-06-07 09:53:00,
2013-06-07 06:03:00,54.0,-99.9,-100.00,North,-999,-999.0,-999.0,-999,0.00,,,0.04,,2013-06-07 10:03:00,
2013-06-07 06:13:00,54.0,-99.9,-100.00,North,-999,-999.0,-999.0,-999,0.00,,,0.04,,2013-06-07 10:13:00,
2013-06-07 06:23:00,54.0,-99.9,-100.00,North,-999,-999.0,-999.0,-999,0.00,,,0.04,,2013-06-07 10:23:00,
2013-06-07 06:30:00,54.0,-99.9,-100.00,North,-999,-999.0,-999.0,-999,0.00,,,0.04,,2013-06-07 10:30:00,
2013-06-07 06:33:00,54.0,-99.9,-100.00,North,-999,-999.0,-999.0,-999,0.00,,,0.04,,2013-06-07 10:33:00,
2013-06-07 06:43:00,54.0,-99.9,-100.00,North,-999,-999.0,-999.0,-999,0.00,,,0.04,,2013-06-07 10:43:00,
2013-06-07 07:02:00,54.0,-99.9,-100.00,North,-999,-999.0,-999.0,-999,0.00,,,0.04,,2013-06-07 11:02:00,
2013-06-07 07:13:00,54.0,-99.9,-100.00,North,-999,-999.0,-999.0,-999,0.00,,,0.04,,2013-06-07 11:13:00,
2013-06-07 07:22:00,54.0,-99.9,-100.00,North,-999,-999.0,-999.0,-999,0.00,,,0.04,,2013-06-07 11:22:00,
2013-06-07 07:30:00,55.0,-99.9,-100.00,North,-999,-999.0,-999.0,-999,0.00,,,0.04,,2013-06-07 11:30:00,
2013-06-07 07:53:00,55.0,-99.9,-100.00,North,-999,-999.0,-999.0,-999,0.00,,,0.04,,2013-06-07 11:53:00,
2013-06-07 08:02:00,55.0,-99.9,-100.00,North,-999,-999.0,-999.0,-999,0.00,,,0.04,,2013-06-07 12:02:00,
2013-06-07 08:13:00,55.0,-99.9,-100.00,North,-999,-999.0,-999.0,-999,0.00,,,0.04,,2013-06-07 12:13:00,
2013-06-07 08:22:00,55.0,-99.9,-100.00,North,-999,-999.0,-999.0,-999,0.00,,,0.04,,2013-06-07 12:22:00,
2013-06-07 08:30:00,54.0,-99.9,-100.00,North,-999,-999.0,-999.0,-999,0.00,,,0.04,,2013-06-07 12:30:00,
2013-06-07 08:52:00,54.0,-99.9,-100.00,North,-999,-999.0,-999.0,-999,0.00,,,0.04,,2013-06-07 12:52:00,
2013-06-07 09:02:00,54.0,-99.9,-100.00,North,-999,-999.0,-999.0,-999,0.00,,,0.04,,2013-06-07 13:02:00,
2013-06-07 09:13:00,54.0,-99.9,-100.00,North,-999,-999.0,-999.0,-999,0.00,,,0.04,,2013-06-07 13:13:00,
2013-06-07 09:22:00,54.0,-99.9,-100.00,North,-999,-999.0,-999.0,-999,0.00,,,0.04,,2013-06-07 13:22:00,
2013-06-07 09:30:00,53.0,-99.9,-100.00,North,-999,-999.0,-999.0,-999,0.01,,,0.05,,2013-06-07 13:30:00,
2013-06-07 09:53:00,53.0,-99.9,-100.00,North,-999,-999.0,-999.0,-999,0.01,,,0.05,,2013-06-07 13:53:00,
2013-06-07 10:03:00,53.0,-99.9,-100.00,North,-999,-999.0,-999.0,-999,0.01,,,0.05,,2013-06-07 14:03:00,
2013-06-07 10:13:00,53.0,-99.9,-100.00,North,-999,-999.0,-999.0,-999,0.01,,,0.05,,2013-06-07 14:13:00,
2013-06-07 10:23:00,53.0,-99.9,-100.00,North,-999,-999.0,-999.0,-999,0.01,,,0.05,,2013-06-07 14:23:00,
2013-06-07 10:30:00,52.0,-99.9,-100.00,North,-999,-999.0,-999.0,-999,0.02,,,0.07,,2013-06-07 14:30:00,
2013-06-07 11:03:00,52.0,-99.9,-100.00,North,-999,-999.0,-999.0,-999,0.02,,,0.07,,2013-06-07 15:03:00,
2013-06-07 11:13:00,52.0,-99.9,-100.00,North,-999,-999.0,-999.0,-999,0.02,,,0.07,,2013-06-07 15:13:00,
2013-06-07 11:23:00,52.0,-99.9,-100.00,North,-999,-999.0,-999.0,-999,0.02,,,0.07,,2013-06-07 15:23:00,
2013-06-07 11:53:00,51.0,-99.9,-100.00,North,-999,-999.0,-999.0,-999,0.09,,,0.16,,2013-06-07 15:53:00,
2013-06-07 12:03:00,51.0,-99.9,-100.00,North,-999,-999.0,-999.0,-999,0.09,,,0.16,,2013-06-07 16:03:00,
2013-06-07 12:13:00,51.0,-99.9,-100.00,North,-999,-999.0,-999.0,-999,0.10,,,0.18,,2013-06-07 16:13:00,
2013-06-07 12:23:00,51.0,-99.9,-100.00,North,-999,-999.0,-999.0,-999,0.10,,,0.18,,2013-06-07 16:23:00,
2013-06-07 12:30:00,52.0,-99.9,-100.00,North,-999,-999.0,-999.0,-999,0.05,,,0.21,,2013-06-07 16:30:00,
2013-06-07 12:33:00,51.0,-99.9,-100.00,North,-999,-999.0,-999.0,-999,0.10,,,0.18,,2013-06-07 16:33:00,
2013-06-07 12:43:00,51.0,-99.9,-100.00,North,-999,-999.0,-999.0,-999,0.10,,,0.18,,2013-06-07 16:43:00,
2013-06-07 13:03:00,52.0,-99.9,-100.00,North,-999,-999.0,-999.0,-999,0.05,,,0.21,,2013-06-07 17:03:00,
2013-06-07 13:13:00,52.0,-99.9,-100.00,North,-999,-999.0,-999.0,-999,0.05,,,0.21,,2013-06-07 17:13:00,
2013-06-07 13:23:00,52.0,-99.9,-100.00,North,-999,-999.0,-999.0,-999,0.05,,,0.21,,2013-06-07 17:23:00,
2013-06-07 13:30:00,52.0,-99.9,-100.00,North,-999,-999.0,-999.0,-999,0.04,,,0.25,,2013-06-07 17:30:00,
2013-06-07 13:53:00,52.0,-99.9,-100.00,North,-999,-999.0,-999.0,-999,0.04,,,0.25,,2013-06-07 17:53:00,
2013-06-07 14:12:00,52.0,-99.9,-100.00,North,-999,-999.0,-999.0,-999,0.04,,,0.25,,2013-06-07 18:12:00,
2013-06-07 14:22:00,52.0,-99.9,-100.00,North,-999,-999.0,-999.0,-999,0.04,,,0.25,,2013-06-07 18:22:00,
2013-06-07 14:30:00,50.0,-99.9,-100.00,North,-999,-999.0,-999.0,-999,0.01,,,0.26,,2013-06-07 18:30:00,
2013-06-07 15:17:00,50.0,-99.9,-100.00,North,-999,-999.0,-999.0,-999,0.01,,,0.26,,2013-06-07 19:17:00,
2013-06-07 15:30:00,51.0,-99.9,-100.00,North,-999,-999.0,-999.0,-999,0.04,,,0.30,,2013-06-07 19:30:00,
2013-06-07 16:02:00,51.0,-99.9,-100.00,North,-999,-999.0,-999.0,-999,0.04,,,0.30,,2013-06-07 20:02:00,
2013-06-07 16:10:00,51.0,-99.9,-100.00,North,-999,-999.0,-999.0,-999,0.04,,,0.30,,2013-06-07 20:10:00,
2013-06-07 16:18:00,51.0,-99.9,-100.00,North,-999,-999.0,-999.0,-999,0.04,,,0.30,,2013-06-07 20:18:00,
2013-06-07 16:28:00,51.0,-99.9,-100.00,North,-999,-999.0,-999.0,-999,0.04,,,0.30,,2013-06-07 20:28:00,
2013-06-07 16:30:00,52.0,-99.9,-100.00,North,-999,-999.0,-999.0,-999,0.01,,,0.31,,2013-06-07 20:30:00,
2013-06-07 17:12:00,52.0,-99.9,-100.00,North,-999,-999.0,-999.0,-999,0.01,,,0.31,,2013-06-07 21:12:00,
2013-06-07 17:45:00,53.0,-99.9,-100.00,North,-999,-999.0,-999.0,-999,0.02,,,0.33,,2013-06-07 21:45:00,
2013-06-07 18:10:00,53.0,-99.9,-100.00,North,-999,-999.0,-999.0,-999,0.01,,,0.32,,2013-06-07 22:10:00,
2013-06-07 18:25:00,53.0,-99.9,-100.00,North,-999,-999.0,-999.0,-999,0.02,,,0.33,,2013-06-07 22:25:00,
2013-06-07 18:30:00,53.0,-99.9,-100.00,North,-999,-999.0,-999.0,-999,0.04,,,0.36,,2013-06-07 22:30:00,
2013-06-07 18:32:00,53.0,-99.9,-100.00,North,-999,-999.0,-999.0,-999,0.02,,,0.33,,2013-06-07 22:32:00,
2013-06-07 18:41:00,53.0,-99.9,-100.00,North,-999,-999.0,-999.0,-999,0.02,,,0.33,,2013-06-07 22:41:00,
2013-06-07 19:05:00,53.0,-99.9,-100.00,North,-999,-999.0,-999.0,-999,0.04,,,0.36,,2013-06-07 23:05:00,
2013-06-07 19:14:00,53.0,-99.9,-100.00,North,-999,-999.0,-999.0,-999,0.04,,,0.36,,2013-06-07 23:14:00,
2013-06-07 19:30:00,52.0,-99.9,-100.00,North,-999,-999.0,-999.0,-999,0.10,,,0.46,,2013-06-07 23:30:00,
2013-06-07 20:17:00,52.0,-99.9,-100.00,North,-999,-999.0,-999.0,-999,0.10,,,0.46,,2013-06-08 00:17:00,
2013-06-07 20:30:00,52.0,-99.9,-100.00,North,-999,-999.0,-999.0,-999,0.10,,,0.56,,2013-06-08 00:30:00,
2013-06-07 21:05:00,52.0,-99.9,-100.00,North,-999,-999.0,-999.0,-999,0.10,,,0.56,,2013-06-08 01:05:00,
2013-06-07 21:23:00,52.0,-99.9,-100.00,North,-999,-999.0,-999.0,-999,0.10,,,0.56,,2013-06-08 01:23:00,
2013-06-07 21:30:00,51.0,-99.9,-100.00,North,-999,-999.0,-999.0,-999,0.13,,,0.69,,2013-06-08 01:30:00,
2013-06-07 22:19:00,51.0,-99.9,-100.00,North,-999,-999.0,-999.0,-999,0.13,,,0.69,,2013-06-08 02:19:00,
2013-06-07 22:30:00,51.0,-99.9,-100.00,North,-999,-999.0,-999.0,-999,0.09,,,0.78,,2013-06-08 02:30:00,
2013-06-07 23:15:00,51.0,-99.9,-100.00,North,-999,-999.0,-999.0,-999,0.09,,,0.78,,2013-06-08 03:15:00,
2013-06-07 23:28:00,51.0,-99.9,-100.00,North,-999,-999.0,-999.0,-999,0.09,,,0.78,,2013-06-08 03:28:00,
2013-06-07 23:30:00,52.0,-99.9,-100.00,North,-999,-999.0,-999.0,-999,0.03,,,0.81,,2013-06-08 03:30:00,